www.pogodaiklimat.ru
ПОГОДА в Корваллизе
Время
и дата
10:56 26.05
11:56 26.05
12:56 26.05
13:56 26.05
14:56 26.05
15:56 26.05
16:56 26.05
17:56 26.05
18:56 26.05
19:56 26.05
20:56 26.05
21:56 26.05
22:56 26.05
23:56 26.05
00:56 27.05
01:56 27.05
02:56 27.05
03:56 27.05
04:56 27.05
05:56 27.05
06:56 27.05
07:56 27.05
08:56 27.05
09:56 27.05
10:56 27.05
11:56 27.05
12:56 27.05
13:56 27.05
14:56 27.05
15:56 27.05
16:56 27.05
17:56 27.05
18:56 27.05
19:56 27.05
20:56 27.05
21:56 27.05
22:56 27.05
23:56 27.05
00:56 28.05
01:56 28.05
02:53 28.05
02:56 28.05
03:17 28.05
03:56 28.05
04:56 28.05
05:56 28.05
06:56 28.05
07:56 28.05
Ветер
(напр.,м/с)
Видим. Явления Облачность Т
(С)
Тd
(С)
f
(%)
Тe
(С)
Тes
(С)
Комфортность P
(гПа)
Po
(гПа)
Тmin
(С)
Tmax
(С)
R
(мм)
R24
(мм)
S
(см)
штиль 0 16 км ясно +16.7 +7.8 56 +17 +36 опасность
простуды
1020.6 1011.5
ЮВ 3 16 км ясно +17.8 +8.3 54 +18 +33 опасность
простуды
1020.4 1011.2
ЮВ 2 16 км ясно +19.4 +8.9 51 +21 +40 комфорт 1019.9 1010.5
штиль 0 16 км ясно +20.6 +8.9 47 +22 +46 комфорт 1019.6 1010.5
СЗ 4
{8}
14 км ясно +21.1 +9.4 47 +22 +33 комфорт 1019.2 1009.8
СЗ 5 16 км ясно +21.1 +9.4 47 +22 +29 комфорт 1019.0 1009.8 +14.4 +21.7
СЗ 6 16 км ясно +20.0 +9.4 50 +21 +24 комфорт 1019.1 1009.8
СЗ 5 16 км ясно +18.3 +8.9 54 +18 +21 1019.3 1010.2
СЗ 8
{11}
16 км ясно +15.6 +8.3 62 +14 +14 1019.5 1010.2
СЗ 7
{9}
16 км ясно +13.3 +7.8 69 +11 +11 1020.0 1010.8
СЗ 6 16 км ясно +12.2 +7.2 71 +10 +10 1020.6 1011.2
СЗ 3 16 км ясно +11.1 +7.2 77 +9 +9 1020.9 1011.8 +11.1 +21.1
СЗ 6 16 км ясно +10.6 +7.2 79 +7 +7 1021.2 1012.2
СЗ 4 16 км ясно +10.0 +7.2 83 +7 +7 1021.2 1012.2
СЗ 3 16 км ясно +9.4 +7.2 86 +7 +7 1021.3 1012.2
СЗ 2 16 км ясно +8.9 +7.2 89 +7 +7 1021.5 1012.2
штиль 0 16 км ясно +7.2 +6.1 93 +6 +6 1021.4 1012.2
З 2 16 км ясно +6.7 +5.6 93 +4 +4 1021.4 1012.2 +5.6 +11.1
ЮЗ 2 16 км ясно +6.1 +5.6 97 +3 +3 1021.5 1012.5
штиль 0 16 км ясно +7.8 +7.2 96 +7 +7 1021.8 1012.5
СЗ 3 16 км ясно +11.7 +8.3 80 +10 +11 1022.1 1012.8
С 3 16 км ясно +12.8 +8.3 74 +11 +14 1022.3 1013.2
СЗ 2 16 км ясно +14.4 +8.3 67 +14 +21 1021.9 1012.8
нст 2 16 км 2/2 720 м +16.1 +9.4 64 +16 +25 1021.7 1012.5 +5.6 +16.1
нст 2 16 км ясно +17.2 +10.0 63 +18 +32 опасность
простуды
1021.0 1011.8
В 3 16 км ясно +18.9 +10.6 59 +20 +34 опасность
простуды
1020.3 1011.2
нст 2 16 км ясно +20.6 +11.1 54 +23 +42 комфорт 1019.6 1010.5
нст 3 16 км ясно +21.7 +11.7 53 +24 +39 комфорт 1019.0 1009.8
нст 2 16 км ясно +23.3 +11.7 48 +26 +42 жарко 1018.3 1009.1
нст 3 16 км ясно +23.9 +11.7 46 +25 +36 комфорт 1017.8 1008.5 +15.6 +24.4
СЗ 6 16 км ясно +22.8 +11.1 48 +25 +28 комфорт 1017.4 1008.1
СЗ 6 16 км ясно +20.0 +10.6 55 +21 +23 комфорт 1017.6 1008.5
СЗ 6 16 км ясно +17.8 +10.0 60 +17 +18 1017.9 1008.8
СЗ 7
{10}
16 км ясно +15.0 +10.0 72 +13 +13 1018.1 1008.8
СЗ 6
{9}
16 км ясно +13.3 +8.9 75 +11 +11 1018.6 1009.5
СЗ 5 16 км ясно +12.2 +8.3 77 +10 +10 1018.6 1009.5 +12.2 +23.9
СЗ 5 16 км ясно +11.7 +7.8 77 +9 +9 1018.9 1009.8
СЗ 5 16 км 10/10 1500 м +11.7 +7.8 77 +9 +9 1019.0 1009.8
З 4 16 км ясно +10.6 +7.2 79 +8 +8 1019.2 1009.8
СЗ 4 16 км 8/8 1500 м +11.1 +7.2 77 +9 +9 1019.5 1010.5
З 3 16 км 8/8 810 м +11.0 +8.0 82 +9 +9 1010.5
З 2 16 км 8/8 810 м +11.1 +7.8 80 +10 +10 1019.8 1010.5
Ю 2 16 км 10/10 810 м +11.0 +8.0 82 +10 +10 1010.8
Ю 2 16 км 5/5 1650 м +9.4 +7.8 90 +8 +8 1019.9 1010.8 +9.4 +12.2
штиль 0 16 км ясно +8.9 +7.2 89 +8 +8 1020.3 1011.2
Ю 2 16 км 2/0 3600 m
[Ac]
+9.4 +8.3 93 +8 +8 1021.0 1011.8
Ю 2 16 км ясно +12.2 +8.9 80 +11 +12 1021.2 1012.2
Ю 2 16 км 8/8 780 м +13.3 +8.3 72 +13 +13 1021.6 1012.5
Местоположение метеостанции Corvallis Municipal Airport: широта 44.5000 долгота -123.2833 высота над уровнем моря 75 м.
В архиве по умолчанию представлена погода в Корваллизе за последние 1-2 суток. Обновление информации о фактической погоде в базе происходит ежечасно! Архивные данные за месяц целиком и за предыдущие месяцы Вы можете получить, выбрав интересующий диапазон дат из раскрывающегося списка и нажав кнопку "Ввод!".
Внимание! Архив погоды МЕТАР в базе сайта по станциям, не включенным в климатический монитор, хранится не более 60 дней. Нет смысла пытаться выбрать более раннюю дату.
*Определитесь, кто Вы:
Внимание! Время в таблицах - местное (без учета летнего времени). Для получения всемирного времени необходимо вычесть поправку, которая равна -8 ч.
Смотрите также архив погоды в соседних городах и на ближайших метеорологических станциях:
Партнеры нашего сайта:      
Пояснения к столбцам:
  • Ветер - указаны скорость ветра в м/с - средняя за 10 мин, порывы в срок и между сроками (в фигурных скобках) и направление, откуда дует ветер: С - северный,
  • СВ - северо-восточный, В - восточный, ЮВ - юго-восточный, Ю - южный, ЮЗ - юго-западный, З - западный, СЗ - северо-западный.
  • Видимость - горизонтальная дальность видимости в метрах или километрах. При видимости от 1 до 10 км при отсутствии осадков обычно наблюдается дымка, при ухудшении видимости до 1 км и менее - туман. В сухую погоду видимость может ухудшаться дымом, пылью или мглою.
  • Явления - указаны атмосферные явления, наблюдавшиеся в срок или в последний час перед сроком; фигурными скобками обозначены явления, наблюдавшиеся между сроками (за 1-3 часа до срока); квадратными скобками обозначены град или гололедные отложения с указанием их диаметра в мм.
  • Облачность - указаны через наклонную черту общая и нижняя облачность в баллах и высота нижней границы облаков в метрах; квадратными скобками обозначены формы облаков: Ci - перистые, Cs - перисто-слоистые, Cc - перисто-кучевые, Ac - высококучевые, As - высокослоистые, Sc - слоисто-кучевые, Ns - слоисто-дождевые, Cu - кучевые, Cb - кучево-дождевые. Подробнее классификацию облаков см. в Атласе облаков (PDF).
  • T - Температура воздуха - температура, измеренная на высоте 2 м над землей.
  • Td - Температура точки росы - температура, при понижении до которой содержащийся в воздухе водяной пар достигнет насыщения.
  • f - Относительная влажность воздуха - влажноcть воздуха, измеренная на высоте 2 м над землей.
  • Te - Эффективная температура - температура, которую ощущает одетый по сезону человек в тени. Характеристика душности погоды. При расчете учитывается влияние влажности воздуха и скорости ветра на теплоощущения человека.
  • Tes - Эффективная температура на солнце - температура, которую ощущает человек, с поправкой на солнечный нагрев. Характеристика знойности погоды. Зависит от высоты солнца над горизонтом, облачности и скорости ветра. Ночью, в пасмурную погоду, а также при ветре 12 м/с и более поправка равна нулю.
  • P - Атмосферное давление - приведенное к уровню моря атмосферное давление.
  • Po - Атмосферное давление - измеренное на уровне метеостанции атмосферное давление.
  • Tmin - Минимальная температура - минимум температуры воздуха на высоте 2 м над землей.
  • Tmax - Максимальная температура - максимум температуры воздуха на высоте 2 м над землей.
  • R - Количество осадков - Количество выпавших осадков за период времени, мм. При наведении курсора мыши на число - период времени, за который выпало указанное количество осадков.
  • R24 - Количество осадков - Количество выпавших осадков за 24 часа, мм.
  • S - Снежный покров - Высота снежного покрова, см. При наведении курсора мыши на число - состояние снежного покрова и степень покрытия местности в баллах.